When you browse on this site, cookies collect data to enhance your experience and personalize the content and advertising you see.
Visit our Privacy Policy to learn more. By continuing to use the site, you agree to this use of cookies and data.
  • In Austria
  • List of Countries
  • For 7 days
  • Water Temperature
  • Satellite Maps
  • Weather Map
  • News
  • Weather Widgets
  • user-avatar
    Login

    Hourly Weather Braga

    Today, 21 March, Thursday

    Time Temperature Precipitation Wind Pressure Humidity
    00:00 +10°C° 0 mm 2 mps 759 mmHg 59%
    01:00 +9°C° 0 mm 2 mps 759 mmHg 56%
    02:00 +9°C° 0 mm 3 mps 759 mmHg 53%
    03:00 +9°C° 0 mm 3 mps 759 mmHg 51%
    04:00 +9°C° 0 mm 3 mps 759 mmHg 50%
    05:00 +8°C° 0 mm 2 mps 759 mmHg 47%
    06:00 +9°C° 0 mm 2 mps 759 mmHg 45%
    07:00 +12°C° 0 mm 2 mps 759 mmHg 43%
    08:00 +12°C° 0 mm 3 mps 759 mmHg 41%
    09:00 +15°C° 0 mm 2 mps 759 mmHg 38%
    10:00 +17°C° 0 mm 2 mps 759 mmHg 34%
    11:00 +19°C° 0 mm 2 mps 758 mmHg 31%
    12:00 +20°C° 0 mm 2 mps 758 mmHg 31%
    13:00 +21°C° 0 mm 1 mps 758 mmHg 30%
    14:00 +22°C° 0 mm 1 mps 757 mmHg 30%
    15:00 +20°C° 0 mm 1 mps 757 mmHg 37%
    16:00 +19°C° 0 mm 1 mps 757 mmHg 44%
    17:00 +16°C° 0 mm 1 mps 757 mmHg 51%
    18:00 +15°C° 0 mm 1 mps 757 mmHg 55%
    19:00 +13°C° 0 mm 1 mps 757 mmHg 59%
    20:00 +12°C° 0 mm 1 mps 758 mmHg 63%
    21:00 +12°C° 0 mm 1 mps 758 mmHg 62%
    22:00 +11°C° 0 mm 1 mps 758 mmHg 60%
    23:00 +11°C° 0 mm 1 mps 758 mmHg 59%

    Tomorrow, 22 March, Friday

    Time Temperature Precipitation Wind Pressure Humidity
    00:00 +11°C° 0 mm 1 mps 758 mmHg 57%
    01:00 +10°C° 0 mm 2 mps 758 mmHg 56%
    02:00 +9°C° 0 mm 2 mps 758 mmHg 54%
    03:00 +9°C° 0 mm 2 mps 758 mmHg 54%
    04:00 +9°C° 0 mm 2 mps 758 mmHg 53%
    05:00 +9°C° 0 mm 2 mps 758 mmHg 53%
    06:00 +11°C° 0 mm 1 mps 758 mmHg 50%
    07:00 +13°C° 0 mm 1 mps 759 mmHg 48%
    08:00 +15°C° 0 mm 1 mps 759 mmHg 46%
    09:00 +18°C° 0 mm 1 mps 759 mmHg 42%
    10:00 +20°C° 0 mm 1 mps 759 mmHg 39%
    11:00 +22°C° 0 mm 1 mps 759 mmHg 35%
    12:00 +22°C° 0 mm 1 mps 759 mmHg 35%
    13:00 +22°C° 0 mm 1 mps 758 mmHg 35%
    14:00 +21°C° 0 mm 2 mps 758 mmHg 35%
    15:00 +20°C° 0 mm 2 mps 758 mmHg 41%
    16:00 +19°C° 0 mm 2 mps 758 mmHg 46%
    17:00 +17°C° 0 mm 2 mps 757 mmHg 52%
    18:00 +16°C° 0 mm 2 mps 758 mmHg 56%
    19:00 +14°C° 0 mm 2 mps 758 mmHg 59%
    20:00 +13°C° 0 mm 2 mps 759 mmHg 63%
    21:00 +12°C° 0 mm 2 mps 759 mmHg 62%
    22:00 +12°C° 0 mm 2 mps 759 mmHg 62%
    23:00 +12°C° 0 mm 2 mps 759 mmHg 61%

    Day after tomorrow, 23 March, Saturday

    Time Temperature Precipitation Wind Pressure Humidity
    00:00 +12°C° 0 mm 2 mps 758 mmHg 60%
    01:00 +10°C° 0 mm 2 mps 758 mmHg 59%
    02:00 +10°C° 0 mm 2 mps 758 mmHg 58%
    03:00 +10°C° 0 mm 2 mps 758 mmHg 57%
    04:00 +10°C° 0 mm 2 mps 758 mmHg 56%
    05:00 +10°C° 0 mm 2 mps 757 mmHg 55%
    06:00 +13°C° 0 mm 2 mps 757 mmHg 52%
    07:00 +14°C° 0 mm 2 mps 757 mmHg 49%
    08:00 +16°C° 0 mm 2 mps 757 mmHg 47%
    09:00 +19°C° 0 mm 1 mps 757 mmHg 42%
    10:00 +22°C° 0 mm 1 mps 757 mmHg 37%
    11:00 +24°C° 0 mm 1 mps 757 mmHg 32%
    12:00 +24°C° 0 mm 1 mps 756 mmHg 31%
    13:00 +25°C° 0 mm 1 mps 756 mmHg 31%
    14:00 +25°C° 0 mm 1 mps 755 mmHg 31%
    15:00 +23°C° 0 mm 1 mps 755 mmHg 36%
    16:00 +22°C° 0 mm 1 mps 755 mmHg 42%
    17:00 +21°C° 0 mm 1 mps 755 mmHg 47%
    18:00 +18°C° 0 mm 2 mps 755 mmHg 51%
    19:00 +17°C° 0 mm 2 mps 756 mmHg 54%
    20:00 +15°C° 0 mm 2 mps 756 mmHg 57%
    21:00 +15°C° 0 mm 2 mps 756 mmHg 57%
    22:00 +15°C° 0 mm 2 mps 756 mmHg 56%
    23:00 +14°C° 0 mm 2 mps 756 mmHg 56%

    24 March, Sunday

    Time Temperature Precipitation Wind Pressure Humidity
    00:00 +14°C° 0 mm 2 mps 756 mmHg 56%
    01:00 +14°C° 0 mm 2 mps 755 mmHg 56%
    02:00 +14°C° 0 mm 2 mps 755 mmHg 57%
    03:00 +13°C° 0 mm 2 mps 755 mmHg 57%
    04:00 +13°C° 0 mm 2 mps 755 mmHg 57%
    05:00 +13°C° 0 mm 2 mps 755 mmHg 56%
    06:00 +15°C° 0 mm 2 mps 755 mmHg 53%
    07:00 +16°C° 0 mm 2 mps 755 mmHg 50%
    08:00 +18°C° 0 mm 2 mps 756 mmHg 47%
    09:00 +20°C° 0 mm 2 mps 756 mmHg 42%
    10:00 +22°C° 0 mm 3 mps 756 mmHg 37%
    11:00 +25°C° 0 mm 3 mps 755 mmHg 31%
    12:00 +25°C° 0 mm 3 mps 755 mmHg 30%
    13:00 +26°C° 0 mm 2 mps 754 mmHg 29%
    14:00 +26°C° 0 mm 2 mps 754 mmHg 28%
    15:00 +25°C° 0 mm 2 mps 754 mmHg 33%
    16:00 +24°C° 0 mm 2 mps 754 mmHg 39%
    17:00 +22°C° 0 mm 1 mps 753 mmHg 44%
    18:00 +20°C° 0 mm 2 mps 754 mmHg 47%
    19:00 +18°C° 0 mm 2 mps 754 mmHg 50%
    20:00 +17°C° 0 mm 2 mps 754 mmHg 53%
    21:00 +16°C° 0 mm 2 mps 754 mmHg 52%
    22:00 +16°C° 0 mm 3 mps 755 mmHg 51%
    23:00 +16°C° 0 mm 3 mps 755 mmHg 50%

    25 March, Monday

    Time Temperature Precipitation Wind Pressure Humidity
    00:00 +14°C° 0 mm 3 mps 754 mmHg 50%
    01:00 +14°C° 0 mm 3 mps 754 mmHg 51%
    02:00 +14°C° 0 mm 3 mps 754 mmHg 51%
    03:00 +13°C° 0 mm 3 mps 754 mmHg 51%
    04:00 +13°C° 0 mm 3 mps 754 mmHg 51%
    05:00 +12°C° 0 mm 3 mps 754 mmHg 52%
    06:00 +14°C° 0 mm 3 mps 754 mmHg 49%
    07:00 +16°C° 0 mm 3 mps 754 mmHg 46%
    08:00 +18°C° 0 mm 3 mps 754 mmHg 43%
    09:00 +19°C° 0 mm 3 mps 754 mmHg 39%
    10:00 +21°C° 0 mm 4 mps 754 mmHg 34%
    11:00 +23°C° 0 mm 4 mps 754 mmHg 30%
    12:00 +25°C° 0 mm 3 mps 753 mmHg 29%
    13:00 +25°C° 0 mm 3 mps 753 mmHg 29%
    14:00 +26°C° 0 mm 3 mps 752 mmHg 28%
    15:00 +25°C° 0 mm 3 mps 752 mmHg 33%
    16:00 +23°C° 0 mm 2 mps 752 mmHg 37%
    17:00 +21°C° 0 mm 2 mps 752 mmHg 42%
    18:00 +20°C° 0 mm 2 mps 752 mmHg 43%
    19:00 +19°C° 0 mm 3 mps 752 mmHg 44%
    20:00 +17°C° 0 mm 3 mps 753 mmHg 45%
    21:00 +17°C° 0 mm 3 mps 753 mmHg 45%
    22:00 +16°C° 0 mm 3 mps 753 mmHg 45%
    23:00 +16°C° 0 mm 3 mps 753 mmHg 45%

    26 March, Tuesday

    Time Temperature Precipitation Wind Pressure Humidity
    00:00 +16°C° 0 mm 3 mps 753 mmHg 47%
    01:00 +14°C° 0 mm 3 mps 753 mmHg 48%
    02:00 +14°C° 0 mm 3 mps 753 mmHg 50%
    03:00 +14°C° 0 mm 3 mps 753 mmHg 52%
    04:00 +13°C° 0 mm 3 mps 753 mmHg 54%
    05:00 +13°C° 0 mm 3 mps 753 mmHg 55%
    06:00 +14°C° 0 mm 3 mps 753 mmHg 53%
    07:00 +17°C° 0 mm 3 mps 753 mmHg 51%
    08:00 +18°C° 0 mm 3 mps 753 mmHg 49%
    09:00 +20°C° 0 mm 3 mps 753 mmHg 44%
    10:00 +22°C° 0 mm 3 mps 753 mmHg 40%
    11:00 +25°C° 0 mm 2 mps 753 mmHg 36%
    12:00 +26°C° 0 mm 2 mps 752 mmHg 35%
    13:00 +26°C° 0 mm 2 mps 752 mmHg 34%
    14:00 +27°C° 0 mm 2 mps 751 mmHg 33%
    15:00 +25°C° 0 mm 2 mps 751 mmHg 37%
    16:00 +24°C° 0 mm 1 mps 751 mmHg 41%
    17:00 +23°C° 0 mm 1 mps 751 mmHg 46%
    18:00 +20°C° 0 mm 2 mps 751 mmHg 48%
    19:00 +19°C° 0 mm 2 mps 752 mmHg 50%
    20:00 +17°C° 0 mm 2 mps 752 mmHg 52%
    21:00 +17°C° 0 mm 2 mps 752 mmHg 51%
    22:00 +16°C° 0 mm 3 mps 752 mmHg 50%
    23:00 +16°C° 0 mm 3 mps 752 mmHg 49%
    Show more